,,,PA_Meas_PMT16A,,PR_Meas_QMR101_102,,RH_Meas_QMH101,,SR_Meas_QMS101,,TA_Meas_QMH101,,GenWind,,GenWind,
date,time,status,PA,status,PR,status,RH,status,SR,status,TA,status,DirAvg,status,SpdAvg,
2010-05-21, 00:00:05,VALID,1004.96,VALID,0,VALID,89.3571,VALID,0,VALID,25.9817,VALID,357,VALID,0.459766,
2010-05-21, 00:01:05,VALID,1004.94,VALID,0,VALID,89.2274,VALID,0,VALID,25.9622,VALID,349,VALID,0.70625,
2010-05-21, 00:02:05,VALID,1004.91,VALID,0,VALID,89.235,VALID,0,VALID,25.9817,VALID,345,VALID,0.516406,
2010-05-21, 00:03:05,VALID,1004.89,VALID,0,VALID,89.113,VALID,0,VALID,25.9817,VALID,344,VALID,0.539063,
2010-05-21, 00:04:05,VALID,1004.9,VALID,0,VALID,89.1892,VALID,0,VALID,25.9817,VALID,351,VALID,0.560156,
2010-05-21, 00:05:05,VALID,1004.85,VALID,0,VALID,89.3189,VALID,0,VALID,25.9408,VALID,317,VALID,0.429297,
2010-05-21, 00:06:05,VALID,1004.87,VALID,0,VALID,89.2732,VALID,0,VALID,25.9622,VALID,340,VALID,0.539453,
2010-05-21, 00:07:05,VALID,1004.85,VALID,0,VALID,89.3418,VALID,0,VALID,25.9622,VALID,353,VALID,0.428906,
2010-05-21, 00:08:05,VALID,1004.83,VALID,0,VALID,89.441,VALID,0,VALID,25.9817,VALID,300,VALID,0.291016,
2010-05-21, 00:09:05,VALID,1004.82,VALID,0,VALID,89.2808,VALID,0,VALID,25.9797,VALID,355,VALID,0.572266,
2010-05-21, 00:10:05,VALID,1004.8,VALID,0,VALID,89.1587,VALID,0,VALID,25.9817,VALID,341,VALID,0.441797,
2010-05-21, 00:11:05,VALID,1004.78,VALID,0,VALID,89.0138,VALID,0,VALID,26.0012,VALID,289,VALID,0.298828,
2010-05-21, 00:12:05,VALID,1004.77,VALID,0,VALID,88.9909,VALID,0,VALID,26.0206,VALID,289,VALID,0.150391,
2010-05-21, 00:13:05,VALID,1004.75,VALID,0,VALID,88.762,VALID,0,VALID,26.0401,VALID,354,VALID,0.250781,
2010-05-21, 00:14:05,VALID,1004.72,VALID,0,VALID,88.7086,VALID,0,VALID,26.0401,VALID,355,VALID,0.614844,
2010-05-21, 00:15:05,VALID,1004.7,VALID,0,VALID,88.5255,VALID,0,VALID,26.0401,VALID,3,VALID,0.517969,
2010-05-21, 00:16:05,VALID,1004.7,VALID,0,VALID,88.5332,VALID,0.100563,VALID,26.0362,VALID,348,VALID,0.751562,
2010-05-21, 00:17:05,VALID,1004.68,VALID,0,VALID,88.3958,VALID,0,VALID,26.0791,VALID,346,VALID,0.562109,
2010-05-21, 00:18:05,VALID,1004.67,VALID,0,VALID,88.3501,VALID,0,VALID,26.0771,VALID,338,VALID,0.478516,
2010-05-21, 00:19:05,VALID,1004.64,VALID,0,VALID,88.2967,VALID,0,VALID,26.0771,VALID,318,VALID,0.750391,
2010-05-21, 00:20:05,VALID,1004.65,VALID,0,VALID,88.3348,VALID,0.100563,VALID,26.0771,VALID,292,VALID,0.507031,
2010-05-21, 00:21:05,VALID,1004.64,VALID,0,VALID,88.2585,VALID,0.100563,VALID,26.0751,VALID,2,VALID,0.491406,
2010-05-21, 00:22:05,VALID,1004.62,VALID,0,VALID,88.1975,VALID,0,VALID,26.0966,VALID,326,VALID,0.550781,
2010-05-21, 00:23:05,VALID,1004.62,VALID,0,VALID,87.961,VALID,0.100563,VALID,26.116,VALID,345,VALID,0.756641,
2010-05-21, 00:24:05,VALID,1004.62,VALID,0,VALID,87.8771,VALID,0,VALID,26.116,VALID,331,VALID,0.436719,
2010-05-21, 00:25:05,VALID,1004.6,VALID,0,VALID,87.7779,VALID,0.100563,VALID,26.157,VALID,350,VALID,0.379297,
2010-05-21, 00:26:05,VALID,1004.62,VALID,0,VALID,87.7169,VALID,0.100563,VALID,26.1355,VALID,350,VALID,0.289844,
2010-05-21, 00:27:05,VALID,1004.58,VALID,0,VALID,87.7703,VALID,0,VALID,26.157,VALID,350,VALID,0.179688,
2010-05-21, 00:28:05,VALID,1004.6,VALID,0,VALID,87.6787,VALID,0,VALID,26.1355,VALID,350,VALID,0.26875,
2010-05-21, 00:29:05,VALID,1004.58,VALID,0,VALID,87.5261,VALID,0,VALID,26.1355,VALID,350,VALID,0.430859,
2010-05-21, 00:30:05,VALID,1004.59,VALID,0,VALID,87.4651,VALID,0,VALID,26.1765,VALID,330,VALID,0.430859,
2010-05-21, 00:31:05,VALID,1004.6,VALID,0,VALID,87.2515,VALID,0,VALID,26.118,VALID,331,VALID,0.347266,
2010-05-21, 00:32:05,VALID,1004.58,VALID,0,VALID,87.0684,VALID,0,VALID,26.1375,VALID,331,VALID,0.291797,
2010-05-21, 00:33:05,VALID,1004.61,VALID,0,VALID,86.9158,VALID,0,VALID,26.157,VALID,331,VALID,0.474609,
2010-05-21, 00:34:05,VALID,1004.58,VALID,0,VALID,86.7099,VALID,0,VALID,26.159,VALID,330,VALID,0.374609,
2010-05-21, 00:35:05,VALID,1004.59,VALID,0,VALID,86.6107,VALID,0,VALID,26.1765,VALID,310,VALID,0,
2010-05-21, 00:36:05,VALID,1004.6,VALID,0,VALID,86.5344,VALID,0,VALID,26.1765,VALID,310,VALID,0.131641,
2010-05-21, 00:37:04,VALID,1004.61,VALID,0,VALID,86.4962,VALID,0,VALID,26.1959,VALID,313,VALID,0.291406,
2010-05-21, 00:38:04,VALID,1004.6,VALID,0,VALID,86.4505,VALID,0,VALID,26.2369,VALID,315,VALID,0.405859,
2010-05-21, 00:39:04,VALID,1004.59,VALID,0,VALID,86.542,VALID,0,VALID,26.2154,VALID,345,VALID,0.107422,
2010-05-21, 00:40:04,VALID,1004.58,VALID,0,VALID,86.4886,VALID,0,VALID,26.2349,VALID,345,VALID,0.0855469,
2010-05-21, 00:41:04,VALID,1004.59,VALID,0,VALID,86.6107,VALID,0,VALID,26.2369,VALID,345,VALID,0.000390625,
2010-05-21, 00:42:04,VALID,1004.57,VALID,0,VALID,86.7556,VALID,0,VALID,26.2154,VALID,345,VALID,0.217187,
2010-05-21, 00:43:04,VALID,1004.57,VALID,0,VALID,86.7785,VALID,0,VALID,26.2369,VALID,345,VALID,0.276563,
2010-05-21, 00:44:04,VALID,1004.55,VALID,0,VALID,86.8548,VALID,0,VALID,26.1959,VALID,358,VALID,0.191406,
2010-05-21, 00:45:04,VALID,1004.53,VALID,0,VALID,87.0379,VALID,0,VALID,26.1959,VALID,358,VALID,0.0710938,
2010-05-21, 00:46:04,VALID,1004.5,VALID,0,VALID,87.076,VALID,0,VALID,26.155,VALID,6,VALID,0.537891,
2010-05-21, 00:47:04,VALID,1004.48,VALID,0,VALID,86.9769,VALID,0,VALID,26.1355,VALID,3,VALID,0.259375,
2010-05-21, 00:48:04,VALID,1004.48,VALID,0,VALID,86.8777,VALID,0,VALID,26.1355,VALID,350,VALID,0.761719,
2010-05-21, 00:49:04,VALID,1004.5,VALID,0,VALID,86.7327,VALID,0,VALID,26.155,VALID,360,VALID,0.492578,
2010-05-21, 00:50:04,VALID,1004.52,VALID,0,VALID,86.7556,VALID,0.100563,VALID,26.155,VALID,360,VALID,0.24375,
2010-05-21, 00:51:04,VALID,1004.52,VALID,0,VALID,86.7633,VALID,0.100563,VALID,26.1355,VALID,1,VALID,0.422266,
2010-05-21, 00:52:04,VALID,1004.51,VALID,0,VALID,86.6031,VALID,0,VALID,26.155,VALID,305,VALID,0.141406,
2010-05-21, 00:53:04,VALID,1004.53,VALID,0,VALID,86.4123,VALID,0,VALID,26.155,VALID,311,VALID,0.336719,
2010-05-21, 00:54:04,VALID,1004.54,VALID,0,VALID,86.336,VALID,0,VALID,26.1745,VALID,336,VALID,0.577344,
2010-05-21, 00:55:04,VALID,1004.52,VALID,0,VALID,86.3132,VALID,0,VALID,26.1745,VALID,336,VALID,0.423047,
2010-05-21, 00:56:04,VALID,1004.48,VALID,0,VALID,86.3132,VALID,0,VALID,26.1959,VALID,306,VALID,0.615625,
2010-05-21, 00:57:04,VALID,1004.49,VALID,0,VALID,85.8936,VALID,0.100563,VALID,26.1745,VALID,4,VALID,0.642187,
2010-05-21, 00:58:04,VALID,1004.48,VALID,0,VALID,85.8859,VALID,0,VALID,26.194,VALID,16,VALID,0.507813,
2010-05-21, 00:59:04,VALID,1004.48,VALID,0,VALID,85.7562,VALID,0,VALID,26.194,VALID,349,VALID,0.582422,
2010-05-21, 01:00:04,VALID,1004.49,VALID,0,VALID,86.0461,VALID,0,VALID,26.2134,VALID,318,VALID,0.115625,
2010-05-21, 01:01:04,VALID,1004.49,VALID,0,VALID,85.7944,VALID,0,VALID,26.2134,VALID,311,VALID,0.505078,
2010-05-21, 01:02:04,VALID,1004.48,VALID,0,VALID,85.7868,VALID,0,VALID,26.194,VALID,311,VALID,0.173047,
2010-05-21, 01:03:04,VALID,1004.47,VALID,0,VALID,85.7257,VALID,0,VALID,26.194,VALID,311,VALID,0.00976563,
2010-05-21, 01:04:04,VALID,1004.49,VALID,0,VALID,85.4892,VALID,0,VALID,26.194,VALID,311,VALID,0.190234,
2010-05-21, 01:05:04,VALID,1004.47,VALID,0,VALID,85.4816,VALID,0,VALID,26.194,VALID,311,VALID,0.317187,
2010-05-21, 01:06:04,VALID,1004.5,VALID,0,VALID,85.6494,VALID,0,VALID,26.194,VALID,311,VALID,0,
2010-05-21, 01:07:04,VALID,1004.47,VALID,0,VALID,85.6494,VALID,0,VALID,26.194,VALID,311,VALID,0.155859,
2010-05-21, 01:08:04,VALID,1004.44,VALID,0,VALID,85.6494,VALID,0.100563,VALID,26.194,VALID,311,VALID,0.128516,
2010-05-21, 01:09:04,VALID,1004.43,VALID,0,VALID,85.8249,VALID,0,VALID,26.1745,VALID,311,VALID,0.121875,
2010-05-21, 01:10:04,VALID,1004.42,VALID,0,VALID,86.0538,VALID,0.100563,VALID,26.155,VALID,311,VALID,0.309375,
2010-05-21, 01:11:04,VALID,1004.4,VALID,0,VALID,86.6183,VALID,0,VALID,26.1355,VALID,311,VALID,0.0945313,
2010-05-21, 01:12:04,VALID,1004.36,VALID,0,VALID,86.9998,VALID,0,VALID,26.0966,VALID,311,VALID,0.220313,
2010-05-21, 01:13:04,VALID,1004.36,VALID,0,VALID,87.2439,VALID,0.100563,VALID,26.0362,VALID,311,VALID,0,
2010-05-21, 01:14:04,VALID,1004.34,VALID,0,VALID,87.3888,VALID,0.100563,VALID,25.9992,VALID,311,VALID,0,
2010-05-21, 01:15:04,VALID,1004.36,VALID,0,VALID,87.6558,VALID,0.100563,VALID,25.9797,VALID,311,VALID,0,
2010-05-21, 01:16:04,VALID,1004.34,VALID,0,VALID,88.0678,VALID,0,VALID,25.9408,VALID,311,VALID,0,
2010-05-21, 01:17:04,VALID,1004.36,VALID,0,VALID,88.0449,VALID,0,VALID,25.9018,VALID,311,VALID,0,
2010-05-21, 01:18:04,VALID,1004.33,VALID,0,VALID,87.9534,VALID,0,VALID,25.8629,VALID,311,VALID,0,
2010-05-21, 01:19:04,VALID,1004.3,VALID,0,VALID,88.0983,VALID,0,VALID,25.8434,VALID,311,VALID,0,
2010-05-21, 01:20:04,VALID,1004.32,VALID,0,VALID,88.3424,VALID,0.100563,VALID,25.8259,VALID,311,VALID,0,
2010-05-21, 01:21:04,VALID,1004.25,VALID,0,VALID,88.9222,VALID,0,VALID,25.785,VALID,311,VALID,0,
2010-05-21, 01:22:04,VALID,1004.26,VALID,0,VALID,89.3723,VALID,0,VALID,25.7655,VALID,311,VALID,0,
2010-05-21, 01:23:04,VALID,1004.25,VALID,0,VALID,89.3952,VALID,0,VALID,25.7071,VALID,311,VALID,0,
2010-05-21, 01:24:04,VALID,1004.25,VALID,0,VALID,89.9826,VALID,0.100563,VALID,25.6876,VALID,311,VALID,0.283594,
2010-05-21, 01:25:04,VALID,1004.22,VALID,0,VALID,90.9515,VALID,0,VALID,25.6486,VALID,311,VALID,0.335547,
2010-05-21, 01:26:04,VALID,1004.22,VALID,0,VALID,92.8892,VALID,0,VALID,25.6097,VALID,311,VALID,0.318359,
2010-05-21, 01:27:04,VALID,1004.23,VALID,0,VALID,93.614,VALID,0,VALID,25.5707,VALID,311,VALID,0.139453,
2010-05-21, 01:28:04,VALID,1004.22,VALID,0,VALID,93.7208,VALID,0,VALID,25.5318,VALID,311,VALID,0,
2010-05-21, 01:29:04,VALID,1004.2,VALID,0,VALID,93.5911,VALID,0.100563,VALID,25.4928,VALID,311,VALID,0,
2010-05-21, 01:30:04,VALID,1004.19,VALID,0,VALID,93.6903,VALID,0,VALID,25.4928,VALID,311,VALID,0,
2010-05-21, 01:31:04,VALID,1004.18,VALID,0,VALID,93.881,VALID,0.100563,VALID,25.4539,VALID,311,VALID,0,
2010-05-21, 01:32:04,VALID,1004.15,VALID,0,VALID,94.0336,VALID,0.100563,VALID,25.4149,VALID,311,VALID,0,
2010-05-21, 01:33:04,VALID,1004.11,VALID,0,VALID,94.209,VALID,0,VALID,25.4149,VALID,311,VALID,0,
2010-05-21, 01:34:04,VALID,1004.13,VALID,0,VALID,94.3998,VALID,0.100563,VALID,25.4149,VALID,311,VALID,0,
2010-05-21, 01:35:04,VALID,1004.12,VALID,0,VALID,94.5295,VALID,0.100563,VALID,25.4149,VALID,311,VALID,0.223828,
2010-05-21, 01:36:04,VALID,1004.13,VALID,0,VALID,94.5676,VALID,0.100563,VALID,25.4149,VALID,311,VALID,0.0828125,
2010-05-21, 01:37:04,VALID,1004.1,VALID,0,VALID,94.5981,VALID,0,VALID,25.4344,VALID,311,VALID,0,
2010-05-21, 01:38:04,VALID,1004.13,VALID,0,VALID,94.6591,VALID,0.100563,VALID,25.4344,VALID,339,VALID,0.494922,
2010-05-21, 01:39:04,VALID,1004.11,VALID,0,VALID,94.6515,VALID,0,VALID,25.4344,VALID,341,VALID,0.360938,
2010-05-21, 01:40:04,VALID,1004.11,VALID,0,VALID,94.6744,VALID,0.100563,VALID,25.4539,VALID,347,VALID,0.517187,
2010-05-21, 01:41:04,VALID,1004.08,VALID,0,VALID,94.6897,VALID,0.100563,VALID,25.452,VALID,341,VALID,0.462891,
2010-05-21, 01:42:04,VALID,1004.06,VALID,0,VALID,94.7431,VALID,0.100563,VALID,25.4539,VALID,307,VALID,0.489062,
2010-05-21, 01:43:04,VALID,1004.02,VALID,0,VALID,94.8117,VALID,0.100563,VALID,25.4734,VALID,329,VALID,0.304688,
2010-05-21, 01:44:04,VALID,1004.04,VALID,0,VALID,94.8651,VALID,0.100563,VALID,25.4734,VALID,329,VALID,0.319922,
2010-05-21, 01:45:04,VALID,1004,VALID,0,VALID,94.9109,VALID,0,VALID,25.4734,VALID,311,VALID,0.227734,
2010-05-21, 01:46:04,VALID,1003.97,VALID,0,VALID,94.9262,VALID,0,VALID,25.4928,VALID,293,VALID,0.410156,
2010-05-21, 01:47:04,VALID,1003.98,VALID,0,VALID,94.9033,VALID,0.100563,VALID,25.4734,VALID,308,VALID,0.328906,
2010-05-21, 01:48:04,VALID,1003.98,VALID,0,VALID,94.8499,VALID,0.100563,VALID,25.4928,VALID,291,VALID,0.451953,
2010-05-21, 01:49:04,VALID,1003.98,VALID,0,VALID,94.8117,VALID,0.100563,VALID,25.4928,VALID,282,VALID,0.151562,
2010-05-21, 01:50:04,VALID,1003.97,VALID,0,VALID,94.6973,VALID,0,VALID,25.4928,VALID,347,VALID,0.41875,
2010-05-21, 01:51:04,VALID,1003.95,VALID,0,VALID,94.6057,VALID,0,VALID,25.5142,VALID,347,VALID,0.544922,
2010-05-21, 01:52:04,VALID,1003.98,VALID,0,VALID,94.4913,VALID,0,VALID,25.4928,VALID,356,VALID,0.735156,
2010-05-21, 01:53:04,VALID,1003.94,VALID,0,VALID,94.4532,VALID,0,VALID,25.5337,VALID,357,VALID,0.0191406,
2010-05-21, 01:54:04,VALID,1003.97,VALID,0,VALID,94.4913,VALID,0,VALID,25.5123,VALID,346,VALID,0.600781,
2010-05-21, 01:55:04,VALID,1003.96,VALID,0,VALID,94.5523,VALID,0,VALID,25.5123,VALID,349,VALID,0.457422,
2010-05-21, 01:56:04,VALID,1003.94,VALID,0,VALID,94.6439,VALID,0.100563,VALID,25.5123,VALID,349,VALID,0.421875,
2010-05-21, 01:57:04,VALID,1003.96,VALID,0,VALID,94.6286,VALID,0,VALID,25.5123,VALID,351,VALID,0.444141,
2010-05-21, 01:58:04,VALID,1003.9,VALID,0,VALID,94.6439,VALID,0,VALID,25.4928,VALID,330,VALID,0.489844,
2010-05-21, 01:59:04,VALID,1003.92,VALID,0,VALID,94.5523,VALID,0.100563,VALID,25.4948,VALID,3,VALID,0.154297,
2010-05-21, 02:00:04,VALID,1003.91,VALID,0,VALID,94.5523,VALID,0.100563,VALID,25.4734,VALID,3,VALID,0.0148437,
2010-05-21, 02:01:04,VALID,1003.88,VALID,0,VALID,94.4532,VALID,0,VALID,25.4734,VALID,3,VALID,0.11875,
2010-05-21, 02:02:04,VALID,1003.91,VALID,0,VALID,94.4761,VALID,0,VALID,25.4948,VALID,3,VALID,0.00234375,
2010-05-21, 02:03:04,VALID,1003.89,VALID,0,VALID,94.3845,VALID,0,VALID,25.4734,VALID,3,VALID,0.410937,
2010-05-21, 02:04:04,VALID,1003.88,VALID,0,VALID,93.7818,VALID,0.100563,VALID,25.4539,VALID,360,VALID,0.492969,
2010-05-21, 02:05:04,VALID,1003.85,VALID,0,VALID,92.9045,VALID,0,VALID,25.4539,VALID,360,VALID,0.448047,
2010-05-21, 02:06:04,VALID,1003.88,VALID,0,VALID,92.0043,VALID,0,VALID,25.4539,VALID,359,VALID,0.028125,
2010-05-21, 02:07:04,VALID,1003.88,VALID,0,VALID,91.8517,VALID,0,VALID,25.4734,VALID,292,VALID,0.729688,
2010-05-21, 02:08:04,VALID,1003.87,VALID,0,VALID,91.989,VALID,0.100563,VALID,25.4928,VALID,290,VALID,0.648828,
2010-05-21, 02:09:04,VALID,1003.87,VALID,0,VALID,92.2027,VALID,0.100563,VALID,25.5318,VALID,329,VALID,0.417188,
2010-05-21, 02:10:04,VALID,1003.88,VALID,0,VALID,90.3793,VALID,0.100563,VALID,25.5318,VALID,346,VALID,0.750391,
2010-05-21, 02:11:04,VALID,1003.88,VALID,0,VALID,89.0672,VALID,0.100563,VALID,25.5318,VALID,341,VALID,0.825,
2010-05-21, 02:12:04,VALID,1003.91,VALID,0,VALID,89.0748,VALID,0.100563,VALID,25.5707,VALID,340,VALID,0.382422,
2010-05-21, 02:13:04,VALID,1003.9,VALID,0,VALID,88.762,VALID,0,VALID,25.5902,VALID,281,VALID,0.558203,
2010-05-21, 02:14:04,VALID,1003.91,VALID,0,VALID,88.6094,VALID,0.100563,VALID,25.5902,VALID,285,VALID,0.624219,
2010-05-21, 02:15:04,VALID,1003.92,VALID,0,VALID,88.3272,VALID,0,VALID,25.6097,VALID,284,VALID,0.266797,
2010-05-21, 02:16:04,VALID,1003.93,VALID,0,VALID,88.5103,VALID,0,VALID,25.6486,VALID,284,VALID,0,
2010-05-21, 02:17:04,VALID,1003.92,VALID,0,VALID,88.2509,VALID,0.100563,VALID,25.6681,VALID,284,VALID,0,
2010-05-21, 02:18:04,VALID,1003.93,VALID,0,VALID,88.1746,VALID,0,VALID,25.6895,VALID,284,VALID,0,
2010-05-21, 02:19:04,VALID,1003.91,VALID,0,VALID,88.2051,VALID,0,VALID,25.6876,VALID,284,VALID,0.235547,
2010-05-21, 02:20:04,VALID,1003.9,VALID,0,VALID,88.0831,VALID,0.100563,VALID,25.6895,VALID,284,VALID,0,
2010-05-21, 02:21:04,VALID,1003.9,VALID,0,VALID,88.0983,VALID,0,VALID,25.6876,VALID,285,VALID,0.205859,
2010-05-21, 02:22:04,VALID,1003.88,VALID,0,VALID,88.0449,VALID,0.100563,VALID,25.7071,VALID,325,VALID,0.439453,
2010-05-21, 02:23:04,VALID,1003.93,VALID,0,VALID,87.8466,VALID,0,VALID,25.6895,VALID,348,VALID,0.643359,
2010-05-21, 02:24:04,VALID,1003.94,VALID,0,VALID,87.9991,VALID,0.100563,VALID,25.6662,VALID,345,VALID,0.535547,
2010-05-21, 02:25:04,VALID,1003.93,VALID,0,VALID,87.9991,VALID,0.100563,VALID,25.6876,VALID,1,VALID,0.760156,
2010-05-21, 02:26:04,VALID,1003.92,VALID,0,VALID,87.8389,VALID,0,VALID,25.6681,VALID,347,VALID,0.624219,
2010-05-21, 02:27:04,VALID,1003.94,VALID,0,VALID,87.5033,VALID,0,VALID,25.6681,VALID,347,VALID,0.492188,
2010-05-21, 02:28:04,VALID,1003.93,VALID,0,VALID,87.6253,VALID,0,VALID,25.6681,VALID,347,VALID,0.184375,
2010-05-21, 02:29:04,VALID,1003.95,VALID,0,VALID,87.6558,VALID,0.100563,VALID,25.6876,VALID,347,VALID,0.435547,
2010-05-21, 02:30:04,VALID,1003.93,VALID,0,VALID,87.4651,VALID,0,VALID,25.7071,VALID,348,VALID,0.521875,
2010-05-21, 02:31:04,VALID,1003.95,VALID,0,VALID,87.3202,VALID,0,VALID,25.6876,VALID,355,VALID,0.425781,
2010-05-21, 02:32:04,VALID,1003.91,VALID,0,VALID,87.6787,VALID,0,VALID,25.7285,VALID,355,VALID,0.378906,
2010-05-21, 02:33:04,VALID,1003.91,VALID,0,VALID,88.0068,VALID,0.100563,VALID,25.6876,VALID,355,VALID,0.286328,
2010-05-21, 02:34:04,VALID,1003.91,VALID,0,VALID,88.0449,VALID,0,VALID,25.6681,VALID,355,VALID,0.270703,
2010-05-21, 02:35:04,VALID,1003.9,VALID,0,VALID,88.0678,VALID,0.100563,VALID,25.6292,VALID,355,VALID,0.314844,
2010-05-21, 02:36:04,VALID,1003.89,VALID,0,VALID,88.3653,VALID,0.100563,VALID,25.6097,VALID,355,VALID,0.215625,
2010-05-21, 02:37:04,VALID,1003.91,VALID,0,VALID,88.556,VALID,0.100563,VALID,25.5902,VALID,355,VALID,0.116016,
2010-05-21, 02:38:04,VALID,1003.88,VALID,0,VALID,88.762,VALID,0.100563,VALID,25.5707,VALID,355,VALID,0,
2010-05-21, 02:39:04,VALID,1003.87,VALID,0,VALID,88.7773,VALID,0.100563,VALID,25.5513,VALID,355,VALID,0,
2010-05-21, 02:40:04,VALID,1003.87,VALID,0,VALID,88.0373,VALID,0.100563,VALID,25.5123,VALID,355,VALID,0.493359,
2010-05-21, 02:41:04,VALID,1003.87,VALID,0,VALID,87.8771,VALID,0.100563,VALID,25.5318,VALID,355,VALID,0.291016,
2010-05-21, 02:42:04,VALID,1003.85,VALID,0,VALID,88.4798,VALID,0,VALID,25.5727,VALID,355,VALID,0.133984,
2010-05-21, 02:43:04,VALID,1003.87,VALID,0,VALID,88.762,VALID,0,VALID,25.5318,VALID,355,VALID,0.198828,
2010-05-21, 02:44:04,VALID,1003.85,VALID,0,VALID,88.7544,VALID,0,VALID,25.4928,VALID,355,VALID,0.132031,
2010-05-21, 02:45:04,VALID,1003.88,VALID,0,VALID,88.7773,VALID,0,VALID,25.4753,VALID,355,VALID,0.358203,
2010-05-21, 02:46:04,VALID,1003.88,VALID,0,VALID,88.9146,VALID,0,VALID,25.4558,VALID,355,VALID,0.251563,
2010-05-21, 02:47:04,VALID,1003.88,VALID,0,VALID,89.3418,VALID,0,VALID,25.4558,VALID,355,VALID,0.0980469,
2010-05-21, 02:48:04,VALID,1003.82,VALID,0,VALID,89.7385,VALID,0,VALID,25.4363,VALID,355,VALID,0.0558594,
2010-05-21, 02:49:04,VALID,1003.83,VALID,0,VALID,89.5631,VALID,0,VALID,25.3974,VALID,355,VALID,0,
2010-05-21, 02:50:04,VALID,1003.81,VALID,0,VALID,89.5936,VALID,0,VALID,25.3974,VALID,355,VALID,0,
2010-05-21, 02:51:04,VALID,1003.81,VALID,0,VALID,89.8224,VALID,0,VALID,25.3584,VALID,355,VALID,0,
2010-05-21, 02:52:04,VALID,1003.82,VALID,0,VALID,90.2115,VALID,0,VALID,25.3584,VALID,355,VALID,0,
2010-05-21, 02:53:04,VALID,1003.82,VALID,0,VALID,90.6616,VALID,0,VALID,25.2981,VALID,355,VALID,0,
2010-05-21, 02:54:04,VALID,1003.85,VALID,0,VALID,91.6457,VALID,0,VALID,25.3409,VALID,355,VALID,0,
2010-05-21, 02:55:04,VALID,1003.84,VALID,0,VALID,91.2872,VALID,0,VALID,25.2806,VALID,355,VALID,0.186328,
2010-05-21, 02:56:04,VALID,1003.81,VALID,0,VALID,91.0431,VALID,0,VALID,25.2611,VALID,355,VALID,0.166406,
2010-05-21, 02:57:04,VALID,1003.82,VALID,0,VALID,91.3101,VALID,0,VALID,25.2416,VALID,355,VALID,0.283203,
2010-05-21, 02:58:04,VALID,1003.84,VALID,0,VALID,91.4092,VALID,0,VALID,25.2027,VALID,355,VALID,0,
2010-05-21, 02:59:04,VALID,1003.84,VALID,0,VALID,91.5008,VALID,0,VALID,25.1832,VALID,355,VALID,0,
2010-05-21, 03:00:04,VALID,1003.86,VALID,0,VALID,91.4855,VALID,0,VALID,25.1637,VALID,355,VALID,0,
2010-05-21, 03:01:04,VALID,1003.86,VALID,0,VALID,91.7983,VALID,0,VALID,25.1442,VALID,355,VALID,0,
2010-05-21, 03:02:04,VALID,1003.86,VALID,0,VALID,91.8441,VALID,0,VALID,25.1442,VALID,355,VALID,0,
2010-05-21, 03:03:04,VALID,1003.86,VALID,0,VALID,91.4626,VALID,0,VALID,25.1053,VALID,355,VALID,0.141797,
2010-05-21, 03:04:04,VALID,1003.84,VALID,0,VALID,91.5923,VALID,0,VALID,25.1072,VALID,355,VALID,0,
2010-05-21, 03:05:04,VALID,1003.85,VALID,0,VALID,90.6158,VALID,0,VALID,25.0469,VALID,355,VALID,0.129688,
2010-05-21, 03:06:04,VALID,1003.86,VALID,0,VALID,90.7989,VALID,0,VALID,25.0469,VALID,355,VALID,0.310156,
2010-05-21, 03:07:04,VALID,1003.86,VALID,0,VALID,90.4022,VALID,0,VALID,25.0274,VALID,355,VALID,0.403125,
2010-05-21, 03:08:04,VALID,1003.87,VALID,0,VALID,90.7989,VALID,0,VALID,25.0079,VALID,355,VALID,0.425391,
2010-05-21, 03:09:04,VALID,1003.87,VALID,0,VALID,92.0272,VALID,0,VALID,25.0079,VALID,355,VALID,0.428906,
2010-05-21, 03:10:04,VALID,1003.86,VALID,0,VALID,92.3705,VALID,0,VALID,24.969,VALID,355,VALID,0.404297,
2010-05-21, 03:11:04,VALID,1003.87,VALID,0,VALID,93.2097,VALID,0,VALID,24.9495,VALID,355,VALID,0.297266,
2010-05-21, 03:12:04,VALID,1003.86,VALID,0,VALID,93.347,VALID,0,VALID,24.93,VALID,355,VALID,0.289844,
2010-05-21, 03:13:04,VALID,1003.88,VALID,0,VALID,93.7589,VALID,0,VALID,24.9106,VALID,355,VALID,0.261719,
2010-05-21, 03:14:04,VALID,1003.89,VALID,0,VALID,93.8657,VALID,0,VALID,24.8911,VALID,355,VALID,0.316016,
2010-05-21, 03:15:04,VALID,1003.91,VALID,0,VALID,93.8429,VALID,0,VALID,24.9106,VALID,355,VALID,0.239453,
2010-05-21, 03:16:04,VALID,1003.9,VALID,0,VALID,93.7742,VALID,0,VALID,24.8911,VALID,355,VALID,0.452734,
2010-05-21, 03:17:04,VALID,1003.91,VALID,0,VALID,93.6445,VALID,0,VALID,24.8911,VALID,355,VALID,0.435156,
2010-05-21, 03:18:04,VALID,1003.88,VALID,0,VALID,93.6216,VALID,0,VALID,24.8716,VALID,355,VALID,0.441797,
2010-05-21, 03:19:04,VALID,1003.88,VALID,0,VALID,93.6521,VALID,0,VALID,24.8716,VALID,355,VALID,0.527344,
2010-05-21, 03:20:04,VALID,1003.91,VALID,0,VALID,94.1022,VALID,0,VALID,24.8522,VALID,355,VALID,0.482812,
2010-05-21, 03:21:04,VALID,1003.89,VALID,0,VALID,94.3616,VALID,0,VALID,24.8522,VALID,355,VALID,0.434766,
2010-05-21, 03:22:04,VALID,1003.86,VALID,0,VALID,94.5371,VALID,0,VALID,24.8327,VALID,355,VALID,0.416016,
2010-05-21, 03:23:04,VALID,1003.86,VALID,0,VALID,94.7354,VALID,0,VALID,24.8113,VALID,355,VALID,0.421484,
2010-05-21, 03:24:04,VALID,1003.87,VALID,0,VALID,94.8575,VALID,0,VALID,24.7937,VALID,355,VALID,0.316016,
2010-05-21, 03:25:04,VALID,1003.86,VALID,0,VALID,94.9719,VALID,0,VALID,24.8151,VALID,355,VALID,0.3875,
2010-05-21, 03:26:04,VALID,1003.88,VALID,0,VALID,94.9796,VALID,0,VALID,24.7743,VALID,355,VALID,0.297266,
2010-05-21, 03:27:04,VALID,1003.84,VALID,0,VALID,94.9643,VALID,0,VALID,24.7743,VALID,355,VALID,0.246484,
2010-05-21, 03:28:04,VALID,1003.89,VALID,0,VALID,94.9872,VALID,0,VALID,24.7548,VALID,355,VALID,0.236328,
2010-05-21, 03:29:04,VALID,1003.88,VALID,0,VALID,94.9719,VALID,0,VALID,24.7548,VALID,355,VALID,0.215234,
2010-05-21, 03:30:04,VALID,1003.89,VALID,0,VALID,94.827,VALID,0,VALID,24.7159,VALID,355,VALID,0,
2010-05-21, 03:31:04,VALID,1003.9,VALID,0,VALID,94.7888,VALID,0,VALID,24.714,VALID,355,VALID,0,
2010-05-21, 03:32:04,VALID,1003.92,VALID,0,VALID,94.7888,VALID,0,VALID,24.7159,VALID,355,VALID,0,
2010-05-21, 03:33:04,VALID,1003.97,VALID,0,VALID,94.7736,VALID,0,VALID,24.7159,VALID,355,VALID,0.0015625,
2010-05-21, 03:34:04,VALID,1003.96,VALID,0,VALID,94.7507,VALID,0,VALID,24.7159,VALID,355,VALID,0.223047,
2010-05-21, 03:35:04,VALID,1003.97,VALID,0,VALID,94.7965,VALID,0,VALID,24.7353,VALID,355,VALID,0.219922,
2010-05-21, 03:36:04,VALID,1003.95,VALID,0,VALID,94.8651,VALID,0,VALID,24.7353,VALID,355,VALID,0.371484,
2010-05-21, 03:37:04,VALID,1003.96,VALID,0,VALID,94.949,VALID,0,VALID,24.6945,VALID,355,VALID,0.492188,
2010-05-21, 03:38:04,VALID,1003.99,VALID,0,VALID,94.9109,VALID,0,VALID,24.6964,VALID,355,VALID,0.641797,
2010-05-21, 03:39:04,VALID,1003.98,VALID,0,VALID,94.8117,VALID,0,VALID,24.6964,VALID,355,VALID,0.582422,
2010-05-21, 03:40:04,VALID,1003.97,VALID,0,VALID,94.766,VALID,0,VALID,24.6769,VALID,355,VALID,0.632031,
2010-05-21, 03:41:04,VALID,1003.98,VALID,0,VALID,94.8499,VALID,0,VALID,24.6964,VALID,355,VALID,0.614062,
2010-05-21, 03:42:04,VALID,1003.98,VALID,0,VALID,94.6744,VALID,0,VALID,24.6574,VALID,355,VALID,0.547266,
2010-05-21, 03:43:04,VALID,1003.98,VALID,0,VALID,94.4989,VALID,0,VALID,24.6574,VALID,355,VALID,0.517187,